Regional Weather Roundup
Issued by NWS

Home | Current Version | Previous Version | Graphics & Text | Print | Product List | Glossary On
Versions: 1 2 3 4 5 6 7 8 9 10 11 12 13 14 15 16 17 18 19 20 21 22 23 24 25 26 27 28 29 30 31 32 33 34 35 36 37 38 39 40 41 42 43 44 45 46 47 48 49 50
000
ASUS43 KBIS 010310
RWRND

NORTH DAKOTA REGIONAL WEATHER ROUNDUP
NATIONAL WEATHER SERVICE BISMARCK ND
1000 PM CDT FRI JUL 31 2015

NOTE: "FAIR" INDICATES FEW OR NO CLOUDS BELOW 12,000 FEET WITH NO
SIGNIFICANT WEATHER AND/OR OBSTRUCTIONS TO VISIBILITY.


NDZ001>003-009>011-017-010400-
NORTHWEST NORTH DAKOTA

CITY           SKY/WX    TMP DP  RH WIND       PRES   REMARKS
WILLISTON      CLEAR     76  50  40 NE7       30.01R
MINOT          CLEAR     66  55  67 N3        30.01S
MINOT AFB      CLEAR     69  51  52 CALM      30.00S
$$

NDZ018>021-031>035-040>046-010400-
SOUTHWEST NORTH DAKOTA

CITY           SKY/WX    TMP DP  RH WIND       PRES   REMARKS
BISMARCK       CLEAR     71  56  58 NE7       30.03S
DICKINSON      CLEAR     66  51  58 E7        30.03R
GARRISON         N/A     69  58  67 CALM      30.02S
HETTINGER ARPT CLEAR     72  48  42 SE7       30.06S
$$

NDZ004>008-012>016-024-026-027-054-010400-
NORTHEAST NORTH DAKOTA

CITY           SKY/WX    TMP DP  RH WIND       PRES   REMARKS
GRAND FORKS    CLEAR     63  55  75 CALM      29.97R
GRND FRKS AFB  CLEAR     61  54  77 W6        29.98R
DEVILS LAKE    CLEAR     66  52  59 NW7       30.00S
$$

NDZ022-023-025-028>030-036>039-047>053-010400-
SOUTHEAST NORTH DAKOTA

CITY           SKY/WX    TMP DP  RH WIND       PRES   REMARKS
FARGO          CLEAR     71  58  63 NW3       29.98R
JAMESTOWN      CLEAR     66  60  81 N3        30.02R
$$




USA.gov is the U.S. government's official web portal to all federal, state and local government web resources and services.